• Em Portugal
  • Lista de países
  • Para 7 dias
  • Temperatura da água
  • Mapas de satélite
  • Mapa do tempo
  • Widgets de tempo
  • user-avatar
    Iniciar Sessão

    Previsão horária em Chern-Palchikovo

    Hoje, 20 Setembro, Quinta-feira

    Tempo Temperatura Precipitação Vento Pressão Humidade
    00:00 +14°C° 0 mm 3 m/s 745 mmHg 93%
    01:00 +14°C° 0 mm 3 m/s 745 mmHg 93%
    02:00 +14°C° 0 mm 2 m/s 745 mmHg 94%
    03:00 +14°C° 0 mm 2 m/s 745 mmHg 94%
    04:00 +13°C° 0 mm 3 m/s 745 mmHg 95%
    05:00 +13°C° 0 mm 3 m/s 745 mmHg 95%
    06:00 +16°C° 0 mm 3 m/s 745 mmHg 91%
    07:00 +17°C° 0 mm 3 m/s 745 mmHg 86%
    08:00 +18°C° 0 mm 4 m/s 745 mmHg 82%
    09:00 +20°C° 0 mm 4 m/s 745 mmHg 76%
    10:00 +22°C° 0 mm 4 m/s 745 mmHg 71%
    11:00 +25°C° 0 mm 5 m/s 745 mmHg 65%
    12:00 +25°C° 0 mm 5 m/s 745 mmHg 62%
    13:00 +26°C° 0 mm 5 m/s 745 mmHg 58%
    14:00 +27°C° 0 mm 5 m/s 745 mmHg 55%
    15:00 +25°C° 0 mm 4 m/s 745 mmHg 60%
    16:00 +24°C° 0 mm 3 m/s 745 mmHg 65%
    17:00 +23°C° 0 mm 2 m/s 745 mmHg 71%
    18:00 +20°C° 0 mm 2 m/s 745 mmHg 75%
    19:00 +19°C° 0 mm 2 m/s 745 mmHg 79%
    20:00 +17°C° 0 mm 2 m/s 746 mmHg 84%
    21:00 +17°C° 0 mm 2 m/s 746 mmHg 86%
    22:00 +16°C° 0 mm 2 m/s 746 mmHg 88%
    23:00 +15°C° 0 mm 2 m/s 746 mmHg 89%

    Amanhã, 21 Setembro, Sexta-feira

    Tempo Temperatura Precipitação Vento Pressão Humidade
    00:00 +15°C° 0 mm 2 m/s 746 mmHg 90%
    01:00 +15°C° 0 mm 1 m/s 746 mmHg 91%
    02:00 +14°C° 0 mm 1 m/s 747 mmHg 91%
    03:00 +14°C° 0 mm 1 m/s 747 mmHg 92%
    04:00 +14°C° 0 mm 1 m/s 747 mmHg 92%
    05:00 +13°C° 0 mm 1 m/s 747 mmHg 92%
    06:00 +15°C° 0 mm 1 m/s 747 mmHg 86%
    07:00 +16°C° 0 mm 1 m/s 748 mmHg 80%
    08:00 +19°C° 0 mm 1 m/s 748 mmHg 75%
    09:00 +21°C° 0 mm 1 m/s 748 mmHg 68%
    10:00 +23°C° 0 mm 1 m/s 748 mmHg 61%
    11:00 +24°C° 0 mm 1 m/s 748 mmHg 53%
    12:00 +25°C° 0 mm 1 m/s 748 mmHg 51%
    13:00 +26°C° 0 mm 1 m/s 748 mmHg 49%
    14:00 +26°C° 0 mm 1 m/s 748 mmHg 47%
    15:00 +25°C° 0 mm 1 m/s 747 mmHg 52%
    16:00 +24°C° 0 mm 1 m/s 747 mmHg 57%
    17:00 +22°C° 0 mm 1 m/s 747 mmHg 62%
    18:00 +21°C° 0 mm 1 m/s 747 mmHg 64%
    19:00 +20°C° 0 mm 1 m/s 747 mmHg 66%
    20:00 +18°C° 0 mm 2 m/s 747 mmHg 68%
    21:00 +18°C° 0 mm 2 m/s 747 mmHg 69%
    22:00 +17°C° 0 mm 2 m/s 747 mmHg 70%
    23:00 +17°C° 0 mm 2 m/s 747 mmHg 71%

    Depois de amanhã, 22 Setembro, Sábado

    Tempo Temperatura Precipitação Vento Pressão Humidade
    00:00 +17°C° 0 mm 2 m/s 747 mmHg 72%
    01:00 +16°C° 0 mm 2 m/s 747 mmHg 73%
    02:00 +16°C° 0 mm 2 m/s 747 mmHg 74%
    03:00 +16°C° 0 mm 2 m/s 746 mmHg 75%
    04:00 +15°C° 0 mm 2 m/s 746 mmHg 76%
    05:00 +15°C° 0 mm 2 m/s 746 mmHg 77%
    06:00 +17°C° 0 mm 3 m/s 746 mmHg 73%
    07:00 +18°C° 0 mm 3 m/s 746 mmHg 70%
    08:00 +19°C° 0 mm 4 m/s 746 mmHg 66%
    09:00 +21°C° 0 mm 4 m/s 745 mmHg 62%
    10:00 +23°C° 0 mm 5 m/s 745 mmHg 58%
    11:00 +25°C° 0 mm 5 m/s 745 mmHg 54%
    12:00 +26°C° 0 mm 5 m/s 745 mmHg 52%
    13:00 +26°C° 0 mm 5 m/s 744 mmHg 50%
    14:00 +27°C° 0 mm 6 m/s 744 mmHg 48%
    15:00 +26°C° 0 mm 5 m/s 743 mmHg 53%
    16:00 +23°C° 0 mm 4 m/s 743 mmHg 58%
    17:00 +22°C° 0 mm 3 m/s 742 mmHg 64%
    18:00 +21°C° 0 mm 3 m/s 742 mmHg 64%
    19:00 +21°C° 0 mm 4 m/s 742 mmHg 65%
    20:00 +20°C° 0 mm 4 m/s 741 mmHg 66%
    21:00 +19°C° 0 mm 4 m/s 741 mmHg 67%
    22:00 +19°C° 0 mm 4 m/s 741 mmHg 68%
    23:00 +18°C° 0 mm 4 m/s 741 mmHg 69%

    23 Setembro, Domingo

    Tempo Temperatura Precipitação Vento Pressão Humidade
    00:00 +17°C° 0.2 mm 4 m/s 740 mmHg 74%
    01:00 +16°C° 0.2 mm 3 m/s 740 mmHg 78%
    02:00 +14°C° 0.2 mm 3 m/s 740 mmHg 83%
    03:00 +13°C° 0.5 mm 3 m/s 740 mmHg 85%
    04:00 +13°C° 0.5 mm 4 m/s 739 mmHg 88%
    05:00 +12°C° 0.5 mm 4 m/s 739 mmHg 90%
    06:00 +10°C° 1 mm 5 m/s 739 mmHg 90%
    07:00 +9°C° 1 mm 5 m/s 739 mmHg 90%
    08:00 +8°C° 1 mm 6 m/s 739 mmHg 90%
    09:00 +8°C° 1.7 mm 6 m/s 739 mmHg 89%
    10:00 +8°C° 1.7 mm 5 m/s 740 mmHg 89%
    11:00 +7°C° 1.7 mm 5 m/s 740 mmHg 89%
    12:00 +9°C° 0.2 mm 5 m/s 740 mmHg 85%
    13:00 +10°C° 0.2 mm 5 m/s 741 mmHg 82%
    14:00 +12°C° 0.2 mm 5 m/s 741 mmHg 78%
    15:00 +12°C° 0 mm 4 m/s 741 mmHg 77%
    16:00 +12°C° 0 mm 3 m/s 741 mmHg 76%
    17:00 +11°C° 0 mm 3 m/s 741 mmHg 76%
    18:00 +11°C° 0 mm 3 m/s 741 mmHg 78%
    19:00 +10°C° 0 mm 3 m/s 741 mmHg 81%
    20:00 +9°C° 0 mm 3 m/s 742 mmHg 83%
    21:00 +9°C° 0 mm 3 m/s 742 mmHg 84%
    22:00 +8°C° 0 mm 3 m/s 742 mmHg 86%
    23:00 +8°C° 0 mm 3 m/s 742 mmHg 87%

    24 Setembro, Segunda-feira

    Tempo Temperatura Precipitação Vento Pressão Humidade
    00:00 +8°C° 0 mm 3 m/s 742 mmHg 88%
    01:00 +7°C° 0 mm 3 m/s 742 mmHg 88%
    02:00 +7°C° 0 mm 3 m/s 742 mmHg 89%
    03:00 +7°C° 0 mm 3 m/s 741 mmHg 88%
    04:00 +7°C° 0 mm 3 m/s 741 mmHg 86%
    05:00 +7°C° 0 mm 3 m/s 741 mmHg 85%
    06:00 +7°C° 0 mm 4 m/s 740 mmHg 81%
    07:00 +8°C° 0 mm 5 m/s 740 mmHg 77%
    08:00 +9°C° 0 mm 6 m/s 740 mmHg 73%
    09:00 +9°C° 0.4 mm 6 m/s 739 mmHg 76%
    10:00 +9°C° 0.4 mm 7 m/s 738 mmHg 78%
    11:00 +9°C° 0.4 mm 8 m/s 737 mmHg 81%
    12:00 +9°C° 2 mm 8 m/s 736 mmHg 83%
    13:00 +9°C° 2 mm 8 m/s 735 mmHg 84%
    14:00 +8°C° 2 mm 9 m/s 734 mmHg 86%
    15:00 +10°C° 0.6 mm 9 m/s 733 mmHg 86%
    16:00 +10°C° 0.6 mm 9 m/s 732 mmHg 86%
    17:00 +11°C° 0.6 mm 9 m/s 731 mmHg 87%
    18:00 +11°C° 0.8 mm 9 m/s 730 mmHg 86%
    19:00 +10°C° 0.8 mm 9 m/s 729 mmHg 85%
    20:00 +8°C° 0.8 mm 9 m/s 729 mmHg 84%
    21:00 +8°C° 0.1 mm 9 m/s 728 mmHg 83%
    22:00 +7°C° 0.1 mm 10 m/s 728 mmHg 82%
    23:00 +6°C° 0.1 mm 10 m/s 727 mmHg 81%

    25 Setembro, Terça-feira

    Tempo Temperatura Precipitação Vento Pressão Humidade
    00:00 +6°C° 0.2 mm 10 m/s 728 mmHg 81%
    01:00 +6°C° 0.2 mm 11 m/s 728 mmHg 81%
    02:00 +6°C° 0.2 mm 11 m/s 728 mmHg 81%
    03:00 +6°C° 0.1 mm 11 m/s 729 mmHg 80%
    04:00 +5°C° 0.1 mm 10 m/s 730 mmHg 79%
    05:00 +5°C° 0.1 mm 10 m/s 731 mmHg 78%
    06:00 +5°C° 0 mm 10 m/s 732 mmHg 77%
    07:00 +5°C° 0 mm 10 m/s 733 mmHg 75%
    08:00 +5°C° 0 mm 10 m/s 734 mmHg 74%
    09:00 +5°C° 0 mm 10 m/s 735 mmHg 73%
    10:00 +5°C° 0 mm 10 m/s 736 mmHg 71%
    11:00 +5°C° 0 mm 9 m/s 737 mmHg 70%
    12:00 +6°C° 0 mm 9 m/s 737 mmHg 67%
    13:00 +6°C° 0 mm 9 m/s 738 mmHg 64%
    14:00 +6°C° 0 mm 8 m/s 739 mmHg 62%
    15:00 +6°C° 0 mm 7 m/s 740 mmHg 62%
    16:00 +7°C° 0 mm 6 m/s 740 mmHg 63%
    17:00 +6°C° 0 mm 5 m/s 741 mmHg 63%
    18:00 +6°C° 0 mm 5 m/s 741 mmHg 65%
    19:00 +5°C° 0 mm 5 m/s 742 mmHg 68%
    20:00 +3°C° 0 mm 5 m/s 743 mmHg 70%
    21:00 +3°C° 0 mm 5 m/s 743 mmHg 72%
    22:00 +2°C° 0 mm 5 m/s 744 mmHg 73%
    23:00 +2°C° 0 mm 5 m/s 744 mmHg 74%
    Mostrar mais